Waarnemingen

Advertentie
Mijn weer
Storlien-Visjovalen A, Zweden (2207): temperatuur & dauwpunt: 12.02.2019 01:00:00 - 18.02.2019 01:00:00 (CET)Storlien-Visjovalen A, Zweden (2207): windsnelheid & windstoten: 12.02.2019 01:00:00 - 18.02.2019 01:00:00 (CET)Storlien-Visjovalen A, Zweden (2207): windrichting: 12.02.2019 01:00:00 - 18.02.2019 01:00:00 (CET)Storlien-Visjovalen A, Zweden (2207): luchtdruk: 12.02.2019 01:00:00 - 18.02.2019 01:00:00 (CET)Storlien-Visjovalen A, Zweden (2207): zicht: 12.02.2019 01:00:00 - 18.02.2019 01:00:00 (CET)Storlien-Visjovalen A, Zweden (2207): neerslag: 12.02.2019 01:00:00 - 18.02.2019 01:00:00 (CET)
Datum & Tijd tt [°C] td [°C] ff [km/u] ff [kn] fx [km/u] fx [kn] dd ppp [hPa] vv [km] rr [mm]
18.02.2019 01:00:00 1,9 -1,4 22 12 55 30 ZZW 1007,1 50 0,0
18.02.2019 00:00:00 1,7 -2,4 31 17 55 30 ZZW 1007,4 50 0,0
17.02.2019 23:00:00 1,3 -2,8 28 15 55 30 ZZW 1008,8 50 0,0
17.02.2019 22:00:00 1,2 -3,3 26 14 56 30 ZZW 1009,2 50 0,0
17.02.2019 21:00:00 0,8 -3,5 28 15 56 30 ZZW 1009,7 50 0,0
17.02.2019 20:00:00 0,5 -4,0 25 14 49 26 Z 1010,1 21 0,0
17.02.2019 19:00:00 0,4 -4,2 21 12 46 25 ZZW 1011,0 50 0,0
17.02.2019 18:00:00 -0,2 -3,9 9 5 22 12 ZO 1012,8 50 0,0
17.02.2019 17:00:00 -0,8 -3,7 9 5 40 21 Z 1013,3 50 0,0
17.02.2019 16:00:00 -0,8 -4,9 9 5 40 21 ZZW 1014,0 50 0,0
17.02.2019 15:00:00 -0,6 -6,4 17 9 34 19 Z 1014,9 50 0,0
17.02.2019 14:00:00 -0,2 -6,2 15 8 29 16 ZZO 1015,0 50 0,0
17.02.2019 13:00:00 -0,7 -6,9 11 6 22 12 ZO 1015,5 49 0,0
17.02.2019 12:00:00 -2,0 -7,7 5 3 22 12 Z 1016,4 44 0,0
17.02.2019 11:00:00 -2,7 -7,3 8 4 22 12 Z 1017,1 46 0,0
17.02.2019 10:00:00 -2,8 -6,8 7 4 14 7 Z 1017,7 39 0,0
17.02.2019 09:00:00 -3,7 -6,2 3 2 11 6 ZZO 1017,8 25 0,0
17.02.2019 08:00:00 -5,1 -6,5 3 1 5 3 N 1017,7 28 0,0
17.02.2019 07:00:00 -4,8 -6,5 2 1 17 9 W 1017,3 31 0,0
17.02.2019 06:00:00 -3,5 -6,0 0 0 21 11 N 1017,0 32 0,0
17.02.2019 05:00:00 -2,6 -5,4 9 5 21 11 WZW 1016,7 42 0,0
17.02.2019 04:00:00 -2,5 -5,8 7 4 21 11 WZW 1016,7 39 0,0
17.02.2019 03:00:00 -2,4 -5,2 8 4 28 15 WZW 1016,0 44 0,0
17.02.2019 02:00:00 -2,1 -4,1 12 6 28 15 W 1015,6 34 0,0
17.02.2019 01:00:00 -2,0 -3,7 16 8 31 17 W 1015,0 30 0,0
17.02.2019 00:00:00 -1,9 -3,6 12 6 37 20 W 1014,6 21 0,0
16.02.2019 23:00:00 -1,8 -3,5 15 8 44 24 WNW 1013,8 12 0,0
16.02.2019 22:00:00 -2,0 -4,2 24 13 44 24 WNW 1013,0 37 0,0
16.02.2019 21:00:00 -1,8 -3,2 22 12 36 20 W 1012,4 25 0,0
16.02.2019 20:00:00 -1,7 -3,3 18 10 40 22 W 1012,0 36 0,0
16.02.2019 19:00:00 -1,5 -3,1 21 12 45 25 W 1011,3 18 0,0
16.02.2019 18:00:00 -1,4 -2,7 22 12 45 25 W 1010,7 12 0,0
16.02.2019 17:00:00 -1,1 -2,1 21 11 41 22 W 1010,0 22 0,0
16.02.2019 16:00:00 -0,8 -1,8 22 12 41 22 WNW 1009,2 31 0,0
16.02.2019 15:00:00 -0,9 -1,7 20 11 39 21 W 1008,3 41 0,1
16.02.2019 14:00:00 -0,5 -1,2 19 11 46 25 W 1007,8 1,7 0,1
16.02.2019 13:00:00 -0,4 -1,0 23 13 46 25 W 1007,0 5 0,1
16.02.2019 12:00:00 -0,1 -0,5 25 13 42 23 W 1005,7 13 0,1
16.02.2019 11:00:00 -0,5 -0,9 23 13 45 24 W 1005,7 4,2 0,3
16.02.2019 10:00:00 -0,2 -0,5 24 13 52 28 W 1005,6 1,8 0,2
16.02.2019 09:00:00 0,0 -0,3 - - 52 28 - 1004,9 1,6 0,2
16.02.2019 08:00:00 0,2 -0,2 - - 50 27 - 1004,9 2,4 0,4
16.02.2019 07:00:00 0,7 0,0 26 14 53 28 W 1004,9 2,3 0,5
16.02.2019 06:00:00 3,0 0,2 27 15 53 28 WNW 1004,4 31 0,0
16.02.2019 05:00:00 4,2 -2,4 18 10 41 22 W 1003,7 41 0,0
16.02.2019 04:00:00 6,2 -5,2 22 12 41 22 W 1002,6 50 0,0
16.02.2019 03:00:00 6,5 -5,2 18 10 40 22 ZW 1001,7 50 0,0
16.02.2019 02:00:00 5,8 -4,9 16 9 43 23 ZZW 1003,1 50 0,0
16.02.2019 01:00:00 5,5 -4,6 22 12 43 23 ZZW 1003,5 50 0,0
16.02.2019 00:00:00 4,9 -3,9 21 11 42 23 ZZW 1003,9 50 0,0
15.02.2019 23:00:00 5,2 -3,6 22 12 39 21 Z 1005,2 50 0,0
15.02.2019 22:00:00 5,2 -3,4 21 11 39 21 Z 1006,1 50 0,0
15.02.2019 21:00:00 6,0 -3,4 18 10 37 20 ZZW 1006,7 50 0,0
15.02.2019 20:00:00 6,5 -4,0 18 10 37 20 ZZW 1007,0 50 0,0
15.02.2019 19:00:00 6,3 -3,4 17 9 30 16 ZZW 1008,1 50 0,0
15.02.2019 18:00:00 5,8 -2,8 16 9 31 17 ZW 1008,9 50 0,0
15.02.2019 17:00:00 5,5 -2,1 15 8 31 17 ZW 1010,0 49 0,0
15.02.2019 16:00:00 5,0 -1,2 14 8 26 14 ZW 1011,2 48 0,0
15.02.2019 15:00:00 5,3 -1,2 8 5 21 11 ZW 1012,2 50 0,0
15.02.2019 14:00:00 6,0 -0,7 10 6 21 11 ZZW 1012,9 48 0,0
15.02.2019 13:00:00 5,5 0,5 10 5 29 16 ZW 1013,7 41 0,0
15.02.2019 12:00:00 5,9 2,0 12 6 35 19 WZW 1013,8 48 0,0
15.02.2019 11:00:00 6,1 3,1 19 11 35 19 W 1014,0 50 0,0
15.02.2019 10:00:00 4,3 2,6 16 9 36 19 WZW 1015,1 50 0,0
15.02.2019 09:00:00 4,5 3,5 17 9 36 19 WZW 1015,0 50 0,0
15.02.2019 08:00:00 4,2 3,5 18 10 41 22 WZW 1014,9 18 0,1
15.02.2019 07:00:00 3,6 3,1 19 11 44 24 W 1014,3 13 0,1
15.02.2019 06:00:00 4,0 2,7 26 14 44 24 W 1014,0 17 0,2
15.02.2019 05:00:00 0,9 0,0 13 7 37 20 WZW 1015,5 3,7 0,6
15.02.2019 04:00:00 0,9 0,2 16 8 44 24 WZW 1015,7 1,3 0,6
15.02.2019 03:00:00 1,6 0,3 20 11 44 24 WZW 1015,9 10 0,4
15.02.2019 02:00:00 1,5 0,2 19 10 41 22 WZW 1016,5 8 0,6
15.02.2019 01:00:00 1,8 -0,3 21 11 51 28 W 1016,5 5 0,1
15.02.2019 00:00:00 3,0 -1,6 23 12 54 29 W 1016,0 25 0,0
14.02.2019 23:00:00 3,1 -1,6 29 16 66 36 W 1015,6 28 0,0
14.02.2019 22:00:00 3,3 -1,5 33 18 66 36 W 1014,8 25 0,0
14.02.2019 21:00:00 2,9 -0,6 29 16 59 32 W 1014,4 19 0,0
14.02.2019 20:00:00 2,0 0,7 26 14 58 31 W 1014,5 18 0,8
14.02.2019 19:00:00 2,7 -0,4 26 14 61 33 W 1014,3 8 0,0
14.02.2019 18:00:00 3,8 -1,6 35 19 63 34 W 1012,6 23 0,0
14.02.2019 17:00:00 4,4 -1,2 39 21 77 41 W 1012,1 26 0,0
14.02.2019 16:00:00 5,0 -1,0 39 21 77 41 W 1011,0 31 0,0
14.02.2019 15:00:00 5,9 -2,2 34 18 68 37 W 1010,1 39 0,0
14.02.2019 14:00:00 5,6 -1,1 31 17 55 30 W 1009,9 50 0,0
14.02.2019 13:00:00 4,4 2,4 22 12 46 25 W 1009,7 50 0,8
14.02.2019 12:00:00 5,8 0,4 17 9 42 23 WZW 1008,7 50 0,0
14.02.2019 11:00:00 4,9 -0,3 17 9 47 25 ZZW 1008,2 50 0,0
14.02.2019 10:00:00 4,8 -0,4 24 13 47 25 ZZW 1009,0 34 0,0
14.02.2019 09:00:00 4,0 -1,2 21 11 46 25 ZZW 1009,7 50 0,0
14.02.2019 08:00:00 4,0 -1,6 22 12 45 24 Z 1010,6 50 0,0
14.02.2019 07:00:00 4,5 -1,3 17 9 40 22 ZZW 1011,5 50 0,0
14.02.2019 06:00:00 3,9 -1,9 21 11 40 22 ZZW 1011,8 50 0,0
14.02.2019 05:00:00 3,4 -2,1 21 12 40 22 ZZW 1012,0 50 0,0
14.02.2019 04:00:00 2,8 -2,7 19 11 40 22 ZZW 1012,9 50 0,0
14.02.2019 03:00:00 2,2 -3,5 14 8 37 20 ZW 1013,5 50 0,0
14.02.2019 02:00:00 2,1 -3,8 15 8 37 20 ZW 1013,7 41 0,0
14.02.2019 01:00:00 1,6 -3,7 21 12 37 20 ZZW 1013,8 15 0,0
14.02.2019 00:00:00 1,5 -5,0 14 8 32 18 ZW 1014,5 39 0,0
13.02.2019 23:00:00 1,0 -4,0 14 8 29 15 ZZW 1014,8 20 0,0
13.02.2019 22:00:00 1,3 -5,1 11 6 29 16 ZW 1014,6 30 0,0
13.02.2019 21:00:00 1,1 -4,5 9 5 37 20 ZZW 1014,8 22 0,0
13.02.2019 20:00:00 1,7 -4,0 18 10 58 32 WNW 1014,1 22 0,0
13.02.2019 19:00:00 1,5 -3,8 23 12 66 36 WNW 1014,3 17 0,0
13.02.2019 18:00:00 1,7 -1,4 35 19 66 36 W 1014,3 13 0,0
13.02.2019 17:00:00 1,8 -1,1 39 21 79 43 W 1013,6 10 0,0
13.02.2019 16:00:00 1,8 -1,3 36 19 79 43 W 1013,4 13 0,0
13.02.2019 15:00:00 1,5 -1,1 37 20 78 42 W 1012,7 14 0,0
13.02.2019 14:00:00 1,1 -0,4 42 23 74 40 W 1012,0 15 0,2
13.02.2019 13:00:00 0,7 0,2 - - 70 38 - 1010,2 4,9 0,6
13.02.2019 12:00:00 1,9 0,0 36 20 58 31 W 1009,0 12 0,1
13.02.2019 11:00:00 1,8 0,2 29 16 61 33 W 1007,5 11 0,0
13.02.2019 10:00:00 1,7 0,2 23 13 61 33 W 1006,8 10 0,1
13.02.2019 09:00:00 1,5 0,3 27 15 57 31 W 1005,3 6 0,1
13.02.2019 08:00:00 1,7 0,1 32 18 67 36 W 1004,2 11 0,0
13.02.2019 07:00:00 1,6 -0,7 33 18 67 36 W 1003,4 24 0,1
13.02.2019 06:00:00 1,8 0,0 37 20 61 33 W 1002,8 12 0,1
13.02.2019 05:00:00 1,6 0,4 31 17 53 29 W 1002,3 9 0,1
13.02.2019 04:00:00 1,6 0,4 26 14 53 28 W 1001,4 10 0,2
13.02.2019 03:00:00 1,9 0,6 27 15 53 28 W 1000,5 14 0,0
13.02.2019 02:00:00 -0,2 -0,9 14 7 35 19 ZW 1000,3 3,3 0,1
13.02.2019 01:00:00 -1,4 -2,2 12 7 38 20 ZW 1000,1 1,4 0,2
13.02.2019 00:00:00 -1,2 -2,3 14 8 40 22 ZW 1000,3 7 0,1
12.02.2019 23:00:00 -1,7 -2,7 20 11 49 26 ZZW 1001,3 2,1 1,0
12.02.2019 22:00:00 -1,9 -2,5 16 9 50 27 ZZW 1002,8 0,3 2,6
12.02.2019 21:00:00 -1,9 -3,1 22 12 50 27 ZZW 1003,3 0,6 0,8
12.02.2019 20:00:00 -2,2 -3,8 18 10 40 22 ZZW 1004,7 1,2 0,4
12.02.2019 19:00:00 -2,4 -4,7 19 11 43 23 ZZW 1006,1 2,1 0,1
12.02.2019 18:00:00 -3,0 -5,8 20 11 43 23 ZZW 1007,7 4,6 0,0
12.02.2019 17:00:00 -3,4 -6,8 18 10 36 19 ZZW 1009,0 32 0,0
12.02.2019 16:00:00 -2,7 -5,3 12 7 26 14 ZZW 1010,0 3,7 0,2
12.02.2019 15:00:00 -1,8 -4,0 10 6 26 14 ZZW 1010,8 50 -
12.02.2019 14:00:00 -1,5 -3,2 8 4 24 13 ZW 1011,6 9 0,0
12.02.2019 13:00:00 -2,0 -4,5 7 4 24 13 ZW 1012,4 50 0,0
12.02.2019 12:00:00 -2,6 -4,8 10 5 24 13 WZW 1012,8 7 0,1
12.02.2019 11:00:00 -3,2 -5,1 7 4 22 12 WZW 1013,4 6 0,0
12.02.2019 10:00:00 -4,3 -5,7 8 4 37 20 W 1013,7 50 0,0
12.02.2019 09:00:00 -4,6 -5,8 14 7 38 21 W 1014,0 50 0,0
12.02.2019 08:00:00 -4,5 -5,7 22 12 44 24 W 1013,8 4,0 0,0
12.02.2019 07:00:00 -4,6 -5,7 23 12 51 28 W 1013,8 6 0,1
12.02.2019 06:00:00 -4,6 -5,6 27 15 55 30 W 1013,6 0,8 0,0
12.02.2019 05:00:00 -4,6 -5,7 26 14 55 30 W 1013,4 1,3 0,1
12.02.2019 04:00:00 -4,5 -5,3 30 16 54 29 W 1013,0 0,3 0,3
12.02.2019 03:00:00 -4,2 -5,3 29 15 54 29 W 1013,0 3,1 0,1
12.02.2019 02:00:00 -4,3 -5,4 29 16 50 27 W 1012,7 1,6 0,1
12.02.2019 01:00:00 -4,5 -5,5 26 14 50 27 W 1012,2 2,4 0,3

tt = temperatuur
td = dauwpunt
ff = windsnelheid
fx = windstoten
dd = windrichting
ppp = luchtdruk
vv = zicht
rr = neerslag

Weerstations in de omgeving